Regional Weather Roundup
Issued by NWS

Home | Current Version | Previous Version | Text Only | Print | Product List | Glossary On
Versions: 1 2 3 4 5 6 7 8 9 10 11 12 13 14 15 16 17 18 19 20 21 22 23 24 25 26 27 28 29 30 31 32 33 34 35 36 37 38 39 40 41 42 43 44 45 46 47 48 49 50
000
ASUS43 KBIS 281902
RWRND

NORTH DAKOTA REGIONAL WEATHER ROUNDUP
NATIONAL WEATHER SERVICE BISMARCK ND
200 PM CDT FRI AUG 28 2015

NOTE: "FAIR" INDICATES FEW OR NO CLOUDS BELOW 12,000 FEET WITH NO
SIGNIFICANT WEATHER AND/OR OBSTRUCTIONS TO VISIBILITY.


NDZ001>003-009>011-017-282000-
NORTHWEST NORTH DAKOTA

CITY           SKY/WX    TMP DP  RH WIND       PRES   REMARKS
WILLISTON      SUNNY     83  61  47 SW9       29.89F
MINOT          SUNNY     84  59  42 NW7       29.86F
MINOT AFB      SUNNY     85  60  42 NW8       29.85F
$$

NDZ018>021-031>035-040>046-282000-
SOUTHWEST NORTH DAKOTA

CITY           SKY/WX    TMP DP  RH WIND       PRES   REMARKS
BISMARCK       SUNNY     85  66  53 S9        29.89F
DICKINSON      SUNNY     88  53  30 NW5       29.92F
GARRISON         N/A     82  30  15 SW8       29.88F
HETTINGER ARPT SUNNY     86  52  30 W13       29.96F
$$

NDZ004>008-012>016-024-026-027-054-282000-
NORTHEAST NORTH DAKOTA

CITY           SKY/WX    TMP DP  RH WIND       PRES   REMARKS
GRAND FORKS    MOSUNNY   83  67  58 S24G31    29.81F
GRND FRKS AFB  SUNNY     83  67  56 SW18G28   29.81F
DEVILS LAKE    SUNNY     81  63  54 SW8       29.83F
$$

NDZ022-023-025-028>030-036>039-047>053-282000-
SOUTHEAST NORTH DAKOTA

CITY           SKY/WX    TMP DP  RH WIND       PRES   REMARKS
FARGO          SUNNY     80  66  62 S13       29.91F
JAMESTOWN      SUNNY     81  66  60 S15       29.89F
$$




USA.gov is the U.S. government's official web portal to all federal, state and local government web resources and services.